| time (UTC) | temp F | wind direction | speed MPH | gust MPH | rain 1hr in | rain 24hr in | rain mn in | humidity % | barometer mb |
| 20260505011247 | 70 | 142 | 4.0 | 4.0 | 0.00 | 0.00 | 0.00 | 36 | 1007.1 |
| 20260505010747 | 70 | 142 | 2.0 | 5.0 | 0.00 | 0.00 | 0.00 | 35 | 1007.1 |
| 20260505010241 | 70 | 142 | 2.0 | 2.0 | 0.00 | 0.00 | 0.00 | 36 | 1007.1 |
| 20260505005742 | 71 | 142 | 1.0 | 4.0 | 0.00 | 0.00 | 0.00 | 34 | 1006.9 |
| 20260505005241 | 71 | 142 | 1.0 | 5.0 | 0.00 | 0.00 | 0.00 | 34 | 1006.9 |
| 20260505004745 | 71 | 142 | 1.0 | 5.0 | 0.00 | 0.00 | 0.00 | 33 | 1006.9 |
| 20260505004244 | 71 | 142 | 0.0 | 6.0 | 0.00 | 0.00 | 0.00 | 33 | 1006.8 |
| 20260505003747 | 71 | 142 | 1.0 | 6.0 | 0.00 | 0.00 | 0.00 | 33 | 1006.8 |
| 20260505003247 | 71 | 139 | 2.0 | 6.0 | 0.00 | 0.00 | 0.00 | 33 | 1006.8 |
| 20260505002741 | 72 | 138 | 5.0 | 7.0 | 0.00 | 0.00 | 0.00 | 32 | 1006.8 |
| 20260505002247 | 72 | 132 | 1.0 | 9.0 | 0.00 | 0.00 | 0.00 | 32 | 1006.8 |
| 20260505001741 | 72 | 157 | 5.0 | 8.0 | 0.00 | 0.00 | 0.00 | 32 | 1006.8 |
| 20260505001244 | 72 | 139 | 2.0 | 9.0 | 0.00 | 0.00 | 0.00 | 31 | 1006.7 |
| 20260505000744 | 72 | 166 | 5.0 | 8.0 | 0.00 | 0.00 | 0.00 | 31 | 1006.7 |
| 20260505000244 | 72 | 146 | 2.0 | 8.0 | 0.00 | 0.00 | 0.00 | 31 | 1006.7 |
| 20260504235743 | 72 | 138 | 4.0 | 9.0 | 0.00 | 0.00 | 0.00 | 31 | 1006.7 |
| 20260504235248 | 73 | 171 | 0.0 | 6.0 | 0.00 | 0.00 | 0.00 | 31 | 1006.7 |
| 20260504234741 | 73 | 236 | 1.0 | 8.0 | 0.00 | 0.00 | 0.00 | 30 | 1006.7 |
| 20260504234241 | 73 | 157 | 4.0 | 8.0 | 0.00 | 0.00 | 0.00 | 29 | 1006.7 |
| 20260504233741 | 73 | 177 | 0.0 | 9.0 | 0.00 | 0.00 | 0.00 | 29 | 1006.7 |
| 20260504233241 | 73 | 125 | 4.0 | 8.0 | 0.00 | 0.00 | 0.00 | 29 | 1006.7 |
| 20260504232744 | 74 | 178 | 5.0 | 7.0 | 0.00 | 0.00 | 0.00 | 28 | 1006.6 |
| 20260504232248 | 74 | 165 | 4.0 | 9.0 | 0.00 | 0.00 | 0.00 | 27 | 1006.6 |
| 20260504231744 | 74 | 183 | 1.0 | 7.0 | 0.00 | 0.00 | 0.00 | 27 | 1006.6 |
| 20260504231241 | 74 | 202 | 4.0 | 11.0 | 0.00 | 0.00 | 0.00 | 28 | 1006.7 |
| 20260504230741 | 74 | 162 | 2.0 | 8.0 | 0.00 | 0.00 | 0.00 | 27 | 1006.7 |
| 20260504230247 | 74 | 203 | 2.0 | 13.0 | 0.00 | 0.00 | 0.00 | 28 | 1006.7 |
| 20260504225741 | 74 | 110 | 6.0 | 11.0 | 0.00 | 0.00 | 0.00 | 27 | 1006.6 |
| 20260504225241 | 75 | 289 | 6.0 | 16.0 | 0.00 | 0.00 | 0.00 | 28 | 1006.6 |
| 20260504224747 | 75 | 192 | 8.0 | 14.0 | 0.00 | 0.00 | 0.00 | 27 | 1006.6 |
| 20260504224247 | 75 | 155 | 5.0 | 13.0 | 0.00 | 0.00 | 0.00 | 27 | 1006.4 |
| 20260504223744 | 75 | 196 | 7.0 | 14.0 | 0.00 | 0.00 | 0.00 | 27 | 1006.4 |
| 20260504223251 | 75 | 215 | 5.0 | 12.0 | 0.00 | 0.00 | 0.00 | 27 | 1006.4 |
| 20260504222748 | 75 | 148 | 9.0 | 14.0 | 0.00 | 0.00 | 0.00 | 26 | 1006.4 |
| 20260504222247 | 75 | 164 | 8.0 | 12.0 | 0.00 | 0.00 | 0.00 | 26 | 1006.4 |
| 20260504221744 | 75 | 177 | 6.0 | 9.0 | 0.00 | 0.00 | 0.00 | 26 | 1006.4 |
| 20260504221250 | 76 | 279 | 2.0 | 7.0 | 0.00 | 0.00 | 0.00 | 26 | 1006.4 |
| 20260504220741 | 76 | 227 | 4.0 | 14.0 | 0.00 | 0.00 | 0.00 | 26 | 1006.4 |
| 20260504220242 | 76 | 150 | 4.0 | 17.0 | 0.00 | 0.00 | 0.00 | 25 | 1006.4 |
| 20260504215741 | 77 | 207 | 6.0 | 8.0 | 0.00 | 0.00 | 0.00 | 26 | 1006.5 |
| 20260504215241 | 77 | 254 | 4.0 | 11.0 | 0.00 | 0.00 | 0.00 | 26 | 1006.5 |
| 20260504214750 | 77 | 155 | 6.0 | 13.0 | 0.00 | 0.00 | 0.00 | 25 | 1006.5 |
| 20260504214241 | 77 | 152 | 6.0 | 7.0 | 0.00 | 0.00 | 0.00 | 25 | 1006.5 |
| 20260504213744 | 77 | 103 | 4.0 | 12.0 | 0.00 | 0.00 | 0.00 | 25 | 1006.5 |
| 20260504213244 | 78 | 217 | 2.0 | 9.0 | 0.00 | 0.00 | 0.00 | 25 | 1006.5 |
| 20260504212745 | 78 | 152 | 5.0 | 11.0 | 0.00 | 0.00 | 0.00 | 24 | 1006.6 |
| 20260504212241 | 78 | 192 | 1.0 | 10.0 | 0.00 | 0.00 | 0.00 | 24 | 1006.6 |
| 20260504211748 | 78 | 162 | 1.0 | 10.0 | 0.00 | 0.00 | 0.00 | 24 | 1006.5 |
| 20260504211241 | 79 | 182 | 10.0 | 13.0 | 0.00 | 0.00 | 0.00 | 25 | 1006.6 |
| 20260504210741 | 79 | 169 | 6.0 | 11.0 | 0.00 | 0.00 | 0.00 | 24 | 1006.6 |
| 20260504210242 | 79 | 135 | 5.0 | 12.0 | 0.00 | 0.00 | 0.00 | 25 | 1006.6 |
| 20260504205747 | 79 | 139 | 4.0 | 12.0 | 0.00 | 0.00 | 0.00 | 24 | 1006.5 |
| 20260504205244 | 80 | 159 | 12.0 | 15.0 | 0.00 | 0.00 | 0.00 | 23 | 1006.5 |
| 20260504204741 | 80 | 126 | 5.0 | 10.0 | 0.00 | 0.00 | 0.00 | 23 | 1006.5 |
| 20260504204241 | 80 | 115 | 5.0 | 11.0 | 0.00 | 0.00 | 0.00 | 23 | 1006.6 |
| 20260504203741 | 80 | 148 | 8.0 | 10.0 | 0.00 | 0.00 | 0.00 | 25 | 1006.6 |
| 20260504203241 | 80 | 220 | 6.0 | 13.0 | 0.00 | 0.00 | 0.00 | 23 | 1006.6 |
| 20260504202741 | 80 | 150 | 2.0 | 10.0 | 0.00 | 0.00 | 0.00 | 23 | 1006.9 |
| 20260504202251 | 80 | 135 | 2.0 | 9.0 | 0.00 | 0.00 | 0.00 | 23 | 1006.8 |
| 20260504201741 | 80 | 171 | 7.0 | 9.0 | 0.00 | 0.00 | 0.00 | 24 | 1006.8 |
| 20260504201241 | 80 | 192 | 5.0 | 8.0 | 0.00 | 0.00 | 0.00 | 24 | 1007.0 |
| 20260504200745 | 80 | 206 | 2.0 | 10.0 | 0.00 | 0.00 | 0.00 | 23 | 1007.0 |
| 20260504200242 | 80 | 292 | 3.0 | 8.0 | 0.00 | 0.00 | 0.00 | 25 | 1007.0 |
| 20260504195751 | 80 | 153 | 2.0 | 11.0 | 0.00 | 0.00 | 0.00 | 24 | 1007.1 |
| 20260504195246 | 80 | 132 | 4.0 | 15.0 | 0.00 | 0.00 | 0.00 | 22 | 1007.1 |
| 20260504194742 | 80 | 153 | 5.0 | 9.0 | 0.00 | 0.00 | 0.00 | 27 | 1007.1 |
| 20260504194244 | 80 | 194 | 2.0 | 8.0 | 0.00 | 0.00 | 0.00 | 23 | 1007.5 |
| 20260504193744 | 80 | 146 | 0.0 | 10.0 | 0.00 | 0.00 | 0.00 | 25 | 1007.5 |
| 20260504193247 | 80 | 203 | 5.0 | 8.0 | 0.00 | 0.00 | 0.00 | 25 | 1007.5 |
| 20260504192741 | 79 | 258 | 0.0 | 7.0 | 0.00 | 0.00 | 0.00 | 25 | 1007.6 |
| 20260504192241 | 79 | 196 | 2.0 | 5.0 | 0.00 | 0.00 | 0.00 | 28 | 1007.6 |
| 20260504191747 | 79 | 200 | 4.0 | 8.0 | 0.00 | 0.00 | 0.00 | 25 | 1007.6 |
| 20260504191247 | 79 | 156 | 5.0 | 14.0 | 0.00 | 0.00 | 0.00 | 25 | 1007.9 |
| 20260504190741 | 79 | 171 | 5.0 | 10.0 | 0.00 | 0.00 | 0.00 | 25 | 1007.9 |
| 20260504190241 | 79 | 173 | 7.0 | 10.0 | 0.00 | 0.00 | 0.00 | 25 | 1007.9 |
| 20260504185741 | 79 | 214 | 3.0 | 9.0 | 0.00 | 0.00 | 0.00 | 25 | 1008.1 |
| 20260504185241 | 78 | 263 | 3.0 | 10.0 | 0.00 | 0.00 | 0.00 | 26 | 1008.1 |
| 20260504184747 | 79 | 165 | 6.0 | 11.0 | 0.00 | 0.00 | 0.00 | 24 | 1008.1 |
| 20260504184244 | 79 | 224 | 2.0 | 13.0 | 0.00 | 0.00 | 0.00 | 23 | 1008.0 |
| 20260504183747 | 79 | 164 | 4.0 | 19.0 | 0.00 | 0.00 | 0.00 | 24 | 1008.0 |
| 20260504183244 | 79 | 87 | 8.0 | 15.0 | 0.00 | 0.00 | 0.00 | 25 | 1008.0 |
| 20260504182741 | 79 | 207 | 4.0 | 12.0 | 0.00 | 0.00 | 0.00 | 25 | 1008.5 |
| 20260504182241 | 80 | 96 | 2.0 | 9.0 | 0.00 | 0.00 | 0.00 | 26 | 1008.5 |
| 20260504181741 | 79 | 241 | 4.0 | 8.0 | 0.00 | 0.00 | 0.00 | 24 | 1008.5 |
| 20260504181241 | 79 | 167 | 2.0 | 9.0 | 0.00 | 0.00 | 0.00 | 22 | 1008.5 |
| 20260504180745 | 79 | 173 | 4.0 | 11.0 | 0.00 | 0.00 | 0.00 | 22 | 1008.5 |
| 20260504180241 | 79 | 128 | 4.0 | 11.0 | 0.00 | 0.00 | 0.00 | 23 | 1008.5 |
| 20260504175742 | 79 | 154 | 9.0 | 10.0 | 0.00 | 0.00 | 0.00 | 23 | 1008.6 |
| 20260504175244 | 79 | 156 | 6.0 | 9.0 | 0.00 | 0.00 | 0.00 | 22 | 1008.6 |
| 20260504174745 | 79 | 211 | 1.0 | 7.0 | 0.00 | 0.00 | 0.00 | 24 | 1008.6 |
| 20260504174242 | 78 | 297 | 2.0 | 9.0 | 0.00 | 0.00 | 0.00 | 24 | 1008.8 |
| 20260504173744 | 78 | 267 | 2.0 | 12.0 | 0.00 | 0.00 | 0.00 | 23 | 1008.8 |
| 20260504173241 | 78 | 213 | 4.0 | 11.0 | 0.00 | 0.00 | 0.00 | 24 | 1008.8 |
| 20260504172744 | 78 | 158 | 5.0 | 8.0 | 0.00 | 0.00 | 0.00 | 22 | 1009.0 |
| 20260504172242 | 78 | 170 | 6.0 | 12.0 | 0.00 | 0.00 | 0.00 | 23 | 1009.0 |
| 20260504171741 | 78 | 300 | 1.0 | 7.0 | 0.00 | 0.00 | 0.00 | 25 | 1009.0 |
| 20260504171244 | 78 | 313 | 2.0 | 8.0 | 0.00 | 0.00 | 0.00 | 23 | 1009.3 |
| 20260504170741 | 78 | 271 | 5.0 | 8.0 | 0.00 | 0.00 | 0.00 | 24 | 1009.3 |
| 20260504170247 | 78 | 187 | 1.0 | 10.0 | 0.00 | 0.00 | 0.00 | 25 | 1009.3 |
| 20260504160248 | 75 | 233 | 3.0 | 9.0 | 0.00 | 0.00 | 0.00 | 27 | 1010.0 |
| 20260504150745 | 70 | 185 | 3.0 | 10.0 | 0.00 | 0.00 | 0.00 | 27 | 1010.5 |
| 20260504150244 | 70 | 214 | 3.0 | 11.0 | 0.00 | 0.00 | 0.00 | 28 | 1010.5 |
| 20260504141241 | 62 | 159 | 5.0 | 7.0 | 0.00 | 0.00 | 0.00 | 41 | 1010.6 |
| 20260504140747 | 61 | 169 | 2.0 | 7.0 | 0.00 | 0.00 | 0.00 | 45 | 1010.5 |
| 20260504140241 | 60 | 163 | 1.0 | 6.0 | 0.00 | 0.00 | 0.00 | 46 | 1010.5 |
| 20260504130741 | 54 | 259 | 2.0 | 6.0 | 0.00 | 0.00 | 0.00 | 56 | 1010.9 |
| 20260504130241 | 54 | 179 | 6.0 | 6.0 | 0.00 | 0.00 | 0.00 | 56 | 1010.9 |
| 20260504120241 | 49 | 213 | 4.0 | 5.0 | 0.00 | 0.00 | 0.00 | 67 | 1011.4 |
| 20260504110246 | 46 | 257 | 0.0 | 2.0 | 0.00 | 0.00 | 0.00 | 73 | 1011.5 |
| 20260504100244 | 46 | 257 | 0.0 | 0.0 | 0.00 | 0.00 | 0.00 | 76 | 1011.5 |
| 20260504081744 | 45 | 257 | 0.0 | 0.0 | 0.00 | 0.00 | 0.00 | 76 | 1012.0 |
| 20260504081247 | 45 | 257 | 0.0 | 0.0 | 0.00 | 0.00 | 0.00 | 76 | 1012.0 |
| 20260504080741 | 45 | 257 | 0.0 | 0.0 | 0.00 | 0.00 | 0.00 | 76 | 1012.0 |
| 20260504080244 | 45 | 257 | 0.0 | 0.0 | 0.00 | 0.00 | 0.00 | 76 | 1012.0 |
| 20260504070241 | 44 | 257 | 0.0 | 2.0 | 0.00 | 0.00 | 0.00 | 76 | 1012.2 |
| 20260504060241 | 42 | 257 | 0.0 | 1.0 | 0.00 | 0.00 | 0.00 | 75 | 1012.3 |
| 20260504050742 | 43 | 257 | 0.0 | 1.0 | 0.00 | 0.00 | 0.00 | 72 | 1012.3 |
| 20260504050241 | 43 | 257 | 0.0 | 0.0 | 0.00 | 0.00 | 0.00 | 72 | 1012.3 |
| 20260504045741 | 43 | 257 | 0.0 | 0.0 | 0.00 | 0.00 | 0.00 | 72 | 1012.3 |
| 20260504045242 | 43 | 257 | 0.0 | 1.0 | 0.00 | 0.00 | 0.00 | 71 | 1012.3 |
| 20260504044748 | 43 | 257 | 1.0 | 1.0 | 0.00 | 0.00 | 0.00 | 71 | 1012.3 |
| 20260504044244 | 43 | 257 | 0.0 | 0.0 | 0.00 | 0.00 | 0.00 | 71 | 1012.3 |
| 20260504043744 | 43 | 257 | 0.0 | 0.0 | 0.00 | 0.00 | 0.00 | 71 | 1012.3 |
| 20260504043244 | 43 | 257 | 0.0 | 1.0 | 0.00 | 0.00 | 0.00 | 70 | 1012.3 |
| 20260504042747 | 43 | 257 | 1.0 | 1.0 | 0.00 | 0.00 | 0.00 | 70 | 1012.4 |
| 20260504042241 | 43 | 257 | 0.0 | 0.0 | 0.00 | 0.00 | 0.00 | 70 | 1012.4 |
| 20260504041745 | 43 | 257 | 0.0 | 1.0 | 0.00 | 0.00 | 0.00 | 69 | 1012.4 |
| 20260504041241 | 43 | 257 | 0.0 | 2.0 | 0.00 | 0.00 | 0.00 | 69 | 1012.3 |
| 20260504040748 | 43 | 257 | 0.0 | 0.0 | 0.00 | 0.00 | 0.00 | 69 | 1012.3 |
| 20260504040242 | 43 | 257 | 0.0 | 0.0 | 0.00 | 0.00 | 0.00 | 68 | 1012.3 |
| 20260504035741 | 44 | 257 | 0.0 | 0.0 | 0.00 | 0.00 | 0.00 | 68 | 1012.2 |
| 20260504035242 | 44 | 257 | 0.0 | 1.0 | 0.00 | 0.00 | 0.00 | 68 | 1012.2 |
| 20260504034741 | 44 | 257 | 0.0 | 0.0 | 0.00 | 0.00 | 0.00 | 67 | 1012.2 |
| 20260504034241 | 44 | 257 | 0.0 | 0.0 | 0.00 | 0.00 | 0.00 | 67 | 1012.0 |
| 20260504033742 | 44 | 257 | 0.0 | 0.0 | 0.00 | 0.00 | 0.00 | 67 | 1012.1 |
| 20260504033244 | 45 | 257 | 0.0 | 1.0 | 0.00 | 0.00 | 0.00 | 66 | 1012.1 |
| 20260504032748 | 45 | 257 | 0.0 | 0.0 | 0.00 | 0.00 | 0.00 | 66 | 1011.9 |
| 20260504032241 | 45 | 257 | 0.0 | 1.0 | 0.00 | 0.00 | 0.00 | 66 | 1011.9 |
| 20260504031741 | 45 | 257 | 0.0 | 1.0 | 0.00 | 0.00 | 0.00 | 65 | 1011.9 |
| 20260504031244 | 46 | 257 | 1.0 | 1.0 | 0.00 | 0.00 | 0.00 | 65 | 1011.8 |
| 20260504030747 | 46 | 257 | 0.0 | 0.0 | 0.00 | 0.00 | 0.00 | 65 | 1011.8 |
| 20260504030244 | 46 | 257 | 0.0 | 0.0 | 0.00 | 0.00 | 0.00 | 63 | 1011.8 |
| 20260504025744 | 46 | 257 | 0.0 | 1.0 | 0.00 | 0.00 | 0.00 | 63 | 1011.8 |
| 20260504025241 | 47 | 257 | 0.0 | 1.0 | 0.00 | 0.00 | 0.00 | 62 | 1011.8 |
| 20260504024748 | 47 | 257 | 0.0 | 0.0 | 0.00 | 0.00 | 0.00 | 62 | 1011.8 |
| 20260504024247 | 47 | 257 | 0.0 | 0.0 | 0.00 | 0.00 | 0.00 | 62 | 1011.8 |
| 20260504023750 | 47 | 257 | 0.0 | 0.0 | 0.00 | 0.00 | 0.00 | 61 | 1011.8 |
| 20260504023241 | 47 | 257 | 0.0 | 0.0 | 0.00 | 0.00 | 0.00 | 61 | 1011.8 |
| 20260504022741 | 48 | 257 | 0.0 | 0.0 | 0.00 | 0.00 | 0.00 | 60 | 1011.8 |
| 20260504022248 | 48 | 257 | 0.0 | 1.0 | 0.00 | 0.00 | 0.00 | 59 | 1011.8 |
| 20260504021745 | 48 | 257 | 0.0 | 1.0 | 0.00 | 0.00 | 0.00 | 58 | 1011.8 |
| 20260504021241 | 49 | 257 | 1.0 | 2.0 | 0.00 | 0.00 | 0.00 | 57 | 1011.8 |
| 20260504020741 | 49 | 257 | 0.0 | 0.0 | 0.00 | 0.00 | 0.00 | 57 | 1011.8 |
| 20260504020247 | 49 | 257 | 0.0 | 0.0 | 0.00 | 0.00 | 0.00 | 56 | 1011.8 |
| 20260504015745 | 50 | 257 | 0.0 | 0.0 | 0.00 | 0.00 | 0.00 | 56 | 1011.7 |
| 20260504015244 | 50 | 257 | 0.0 | 0.0 | 0.00 | 0.00 | 0.00 | 54 | 1011.7 |
| 20260504014747 | 50 | 257 | 0.0 | 1.0 | 0.00 | 0.00 | 0.00 | 54 | 1011.7 |
| 20260504014242 | 51 | 257 | 1.0 | 2.0 | 0.00 | 0.00 | 0.00 | 53 | 1011.7 |
| 20260504013747 | 51 | 257 | 0.0 | 0.0 | 0.00 | 0.00 | 0.00 | 51 | 1011.7 |
| 20260504013241 | 51 | 257 | 0.0 | 0.0 | 0.00 | 0.00 | 0.00 | 51 | 1011.7 |
| 20260504012744 | 51 | 257 | 0.0 | 0.0 | 0.00 | 0.00 | 0.00 | 50 | 1011.5 |
| 20260504012244 | 52 | 257 | 0.0 | 0.0 | 0.00 | 0.00 | 0.00 | 50 | 1011.5 |
| 20260504011744 | 52 | 257 | 0.0 | 0.0 | 0.00 | 0.00 | 0.00 | 49 | 1011.5 |